LTAY

Details ICAO LTAY (DNZ)
Name CARDAK
Region Turkey
Timezone Europe/Istanbul (UTC+3.0)
Plans Departing 55
Arriving 37
Stats Elevation 2,795 ft / 852 m (AMSL)
Location 37.785564° 29.701296°
Runways 1
Magnetic Variation 5.129° E
Sunrise 2018-05-23 02:47:04 UTC / 2018-05-23 05:47:04 Local
Sunset 2018-05-23 17:11:40 UTC / 2018-05-23 20:11:40 Local
Advertisement - Login to hide

Runways

ID Width Length Bearing (true) Bearing (mag) Surface Threshold Offset Overrun Length
06 148 ft / 45 m 9,830 ft / 2,996 m 58.82° 53.69° Asphalt 0 ft / 0 m 480 ft / 146 m
24 148 ft / 45 m 9,830 ft / 2,996 m 238.84° 233.71° Asphalt 0 ft / 0 m 506 ft / 154 m

Approach Navaids

Runway Type Ident Frequency Range Bearing (true) Bearing (mag) Slope Elevation
24 Localiser ICRD 110.70 MHz 18 nm / 33 km 238.96° 233.83° - 2,806 ft / 855 m (AMSL)
24 Glidescope ICRD 110.70 MHz 10 nm / 19 km 238.83° 233.70° 3.00° 2,846 ft / 867 m (AMSL)

Map

Weather


0- 5 10 15 20 25 30 35+ Temperature / ° C

Clouds and Precipitation
Forecast for 2018-05-23 18:00 UTC. Updated 4 hours ago

Ground ~20,000 ft ~40,000 ft Winds

METAR

LTAY 232050Z 27005KT CAVOK 19/10 Q1018

TAF

Not found

Frequencies

Tower 122.10 MHz TWR
Approach 121.60 MHz MENDERES APP
Tower 118.60 MHz TWR
Warning: Do not use this data for real-world aviation or navigation. No guarantee of current accuracy is given.